Weather History for Saranac Lake, NY

Change the Weather History Date:

Wednesday, February 6, 2013

  Actual Average Record
Temperature  
Mean Temperature 5 °F 13 °F  
Max Temperature 20 °F 26 °F 55 °F (2005)
Min Temperature -10 °F 1 °F -23 °F (1993)
Degree Days  
Heating Degree Days 60 52  
Month to date heating degree days 365 312  
Since 1 July heating degree days 5274 5614  
Moisture  
Dew Point 7 °F    
Average Humidity 66    
Maximum Humidity 91    
Minimum Humidity 41    
Precipitation  
Precipitation 0.01 in 0.06 in 0.42 in (2008)
Month to date precipitation 0.02 0.35  
Year to date precipitation 1.25 2.48  
Sea Level Pressure  
Sea Level Pressure 29.98 in    
Wind  
Wind Speed 5 mph (West)    
Max Wind Speed 15 mph    
Max Gust Speed 23 mph    
Visibility 5 miles    
Events Fog , Snow    
T = Trace of Precipitation, MM = Missing Value Source: NWS Daily Summary

Daily Weather History Graph

Daily Weather History Graph

Search for Another Location

Airport:

Trip Planner

Search our weather history database for the weather conditions in past years. The results will help you decide how hot, cold, wet, or windy it might be!

Date:

Astronomy

Feb. 06, 2013 Rise Set
Actual Time 7:08 AM EST 5:13 PM EST
Civil Twilight 6:38 AM EST 5:44 PM EST
Nautical Twilight 6:03 AM EST 6:18 PM EST
Astronomical Twilight 5:30 AM EST 6:52 PM EST
Moon 3:54 AM EST (2/6) 1:24 PM EST (2/6)
Length of Visible Light 11h 05m
Length of Day
10h 04m
Waning Crescent, 17% of the Moon is Illuminated
Feb 6
Waning Crescent
Feb 10
New
Feb 17
First Quarter
Feb 25
Full
Mar 4
Last Quarter

Hourly Weather History & Observations

Time (EST) Temp. Windchill Dew Point Humidity Pressure Visibility Wind Dir Wind Speed Gust Speed Precip Events Conditions
12:51 AM 10.9 °F - 3.9 °F 73% 29.83 in 9.0 mi Calm Calm - N/A   Overcast
1:51 AM 10.9 °F 2.9 °F 5.0 °F 77% 29.83 in 10.0 mi SW 4.6 mph - N/A   Overcast
2:51 AM 10.0 °F 3.6 °F 6.1 °F 84% 29.83 in 10.0 mi WSW 3.5 mph - N/A   Overcast
3:21 AM 10.4 °F 4.0 °F 8.6 °F 92% 29.73 in 5.0 mi SW 3.5 mph - 0.00 in Snow Light Snow
3:44 AM 12.2 °F 6.1 °F 8.6 °F 85% 29.73 in 4.0 mi SW 3.5 mph - 0.00 in Snow Light Snow
3:51 AM 12.9 °F 5.2 °F 9.0 °F 84% 29.83 in 5.0 mi SW 4.6 mph - 0.00 in Snow Light Snow
4:51 AM 17.1 °F 6.6 °F 12.9 °F 84% 29.83 in 3.0 mi SSW 8.1 mph - 0.00 in Snow Light Snow
5:51 AM 19.0 °F 10.0 °F 15.1 °F 85% 29.84 in 4.0 mi SW 6.9 mph - 0.00 in Snow Light Snow
6:51 AM 19.0 °F 10.0 °F 15.1 °F 85% 29.86 in 2.5 mi SW 6.9 mph - 0.00 in Snow Light Snow
7:01 AM 19.4 °F 8.6 °F 15.8 °F 86% 29.78 in 1.0 mi SW 9.2 mph - 0.00 in Snow Light Snow
7:39 AM 19.4 °F 11.5 °F 17.6 °F 93% 29.80 in 0.8 mi SW 5.8 mph - 0.00 in Snow Light Snow
8:33 AM 19.4 °F 11.5 °F 17.6 °F 93% 29.82 in 0.5 mi WSW 5.8 mph - 0.00 in Fog , Snow Snow
8:46 AM 19.4 °F 12.8 °F 17.6 °F 93% 29.82 in 0.2 mi WSW 4.6 mph - 0.01 in Fog , Snow Snow
8:51 AM 19.9 °F 13.4 °F 18.0 °F 92% 29.91 in 0.5 mi West 4.6 mph - 0.01 in Fog , Snow Snow
9:51 AM 19.9 °F 11.1 °F 16.0 °F 85% 29.94 in 0.8 mi West 6.9 mph - 0.00 in Snow Light Snow
10:01 AM 19.4 °F 9.5 °F 15.8 °F 86% 29.86 in 1.0 mi West 8.1 mph 19.6 mph 0.00 in Snow Light Snow
10:28 AM 19.4 °F 7.9 °F 14.0 °F 80% 29.87 in 0.5 mi West 10.4 mph 20.7 mph 0.00 in Snow Snow
10:51 AM 19.0 °F 10.0 °F 14.0 °F 81% 29.98 in 1.8 mi West 6.9 mph - 0.00 in Snow Light Snow
11:23 AM 19.4 °F 7.9 °F 12.2 °F 74% 29.90 in 1.8 mi West 10.4 mph - 0.00 in Snow Light Snow
11:41 AM 17.6 °F 7.3 °F 12.2 °F 79% 29.91 in 0.2 mi WNW 8.1 mph 18.4 mph 0.00 in Fog , Snow Heavy Snow
11:51 AM 17.1 °F 5.8 °F 12.0 °F 81% 30.01 in 0.5 mi WNW 9.2 mph - 0.00 in Snow Snow
12:02 PM 17.6 °F 5.7 °F 12.2 °F 79% 29.92 in 1.0 mi West 10.4 mph 20.7 mph 0.00 in Snow Light Snow
12:08 PM 17.6 °F 5.7 °F 10.4 °F 73% 29.93 in 3.0 mi West 10.4 mph 20.7 mph 0.00 in Snow Light Snow
12:41 PM 17.6 °F 9.3 °F 10.4 °F 73% 29.93 in 2.5 mi Variable 5.8 mph - 0.00 in Snow Light Snow
12:51 PM 17.1 °F 7.6 °F 10.0 °F 74% 30.04 in 1.5 mi Variable 6.9 mph 16.1 mph 0.00 in Snow Light Snow
1:14 PM 15.8 °F 6.1 °F 10.4 °F 79% 29.95 in 2.0 mi Variable 6.9 mph - 0.00 in Snow Light Snow
1:39 PM 17.6 °F 3.7 °F 8.6 °F 68% 29.96 in 5.0 mi WNW 13.8 mph 21.9 mph 0.00 in   Haze
1:51 PM 14.0 °F 1.2 °F 7.0 °F 74% 30.07 in 2.5 mi WNW 10.4 mph 19.6 mph 0.00 in Snow Light Snow
2:05 PM 14.0 °F 1.2 °F 6.8 °F 73% 29.98 in 4.0 mi West 10.4 mph 18.4 mph 0.00 in   Haze
2:51 PM 15.1 °F 4.2 °F 5.0 °F 64% 30.10 in 10.0 mi WNW 8.1 mph 17.3 mph 0.00 in   Mostly Cloudy
3:09 PM 15.8 °F 2.7 °F -0.4 °F 49% 30.02 in 10.0 mi WSW 11.5 mph 21.9 mph N/A   Scattered Clouds
3:51 PM 14.0 °F 5.1 °F -5.1 °F 43% 30.14 in 10.0 mi Variable 5.8 mph - N/A   Clear
4:51 PM 10.9 °F 1.4 °F -9.9 °F 39% 30.18 in 10.0 mi Variable 5.8 mph 18.4 mph N/A   Clear
5:51 PM 8.1 °F -2.0 °F -7.1 °F 50% 30.21 in 10.0 mi WNW 5.8 mph - N/A   Clear
6:51 PM 7.0 °F -1.7 °F -7.1 °F 53% 30.24 in 10.0 mi WNW 4.6 mph - N/A   Overcast
7:51 PM 6.1 °F - -7.1 °F 55% 30.26 in 10.0 mi Calm Calm - N/A   Overcast
8:51 PM 5.0 °F - -7.1 °F 58% 30.30 in 10.0 mi Calm Calm - N/A   Overcast
9:51 PM 1.0 °F - -8.0 °F 66% 30.32 in 10.0 mi Calm Calm - N/A   Clear
10:51 PM -4.0 °F - -9.0 °F 79% 30.34 in 10.0 mi Calm Calm - N/A   Clear
11:51 PM -9.9 °F - -13.0 °F 86% 30.36 in 10.0 mi Calm Calm - N/A   Scattered Clouds